Regional Weather Roundup
Issued by NWS Green Bay, WI

Home | Current Version | Previous Version | Text Only | Print | Product List | Glossary On
Versions: 1 2 3 4 5 6 7 8 9 10 11 12 13 14 15 16 17 18 19 20 21 22 23 24 25 26 27 28 29 30 31 32 33 34 35 36 37 38 39 40 41 42 43 44 45 46 47 48 49 50
000
ASUS43 KGRB 291911
RWRGRB

NORTH-CENTRAL AND NORTHEAST WISCONSIN REGIONAL WEATHER ROUNDUP
NATIONAL WEATHER SERVICE GREEN BAY WI
200 PM CDT FRI MAY 29 2015

WIZ005-009-010>012-018-019-292000-
NORTH CENTRAL WISCONSIN

CITY           SKY/WX    TMP DP  RH WIND       PRES   REMARKS
IRONWOOD       CLOUDY    66  64  94 W9        29.85F
MANITOWISH WTR CLOUDY    66  64  90 W6        29.90S
ARBOR VITAE    CLOUDY    65  63  93 W5        29.91R
EAGLE RIVER    CLOUDY    69  62  78 W9        29.89F
LAND O LAKES   CLOUDY    69  62  78 SW10G17   29.90S
RHINELANDER    CLOUDY    72  61  68 SW14      29.92S
PHILLIPS       CLOUDY    66  64  91 SW5       29.91S
ANTIGO         PTSUNNY   74  64  69 SW15G22   29.92F
TOMAHAWK       CLOUDY    69  61  76 SW5       29.93R
MERRILL        CLOUDY    73  64  73 W9        29.92S
$$

WIZ013-073-292000-
NORTHEAST WISCONSIN

CITY           SKY/WX    TMP DP  RH WIND       PRES   REMARKS
IRON MOUNTAIN  CLOUDY    76  61  59 S9        29.86F
MARINETTE      CLOUDY    73  63  68 S13       29.90F
OCONTO         CLOUDY    76  66  69 S8        29.90F
$$

WIZ017-030-035>037-045-292000-
CENTRAL WISCONSIN

CITY           SKY/WX    TMP DP  RH WIND       PRES   REMARKS
MEDFORD        CLOUDY    69  64  82 SW6       29.92F
WAUSAU         PTSUNNY   76  62  62 SW13      29.90F
MOSINEE        PTSUNNY   75  64  69 SW9       29.93S
MARSHFIELD     CLOUDY    76  63  64 S7        29.90F
WISC RAPIDS    PTSUNNY   78  61  55 S12       29.93S
STEVENS POINT  PTSUNNY   77  58  52 SW17      29.92S
WAUPACA        PTSUNNY   79  64  60 S8        29.92F
SHAWANO        PTSUNNY   77  63  62 SW7       29.91F
CLINTONVILLE   PTSUNNY   77  63  61 S12       29.91F
$$

WIZ038-039-048-051-292000-
FOX VALLEY

CITY           SKY/WX    TMP DP  RH WIND       PRES   REMARKS
NWS GREEN BAY  PTSUNNY   77  65  66 SW10      29.92F
APPLETON       PTSUNNY   77  63  61 SW10      29.94F
OSHKOSH        CLOUDY    79  66  64 VRB6      29.92F
FOND DU LAC    LGT RAIN  78  66  66 S13       29.92F
$$

WIZ022-050-052-292000-
EAST CENTRAL WISCONSIN

CITY           SKY/WX    TMP DP  RH WIND       PRES   REMARKS
STURGEON BAY   CLOUDY    72  63  73 S13       29.95F
MANITOWOC      PTSUNNY   68  60  75 SE8       29.94F THUNDER
SHEBOYGAN      CLOUDY    75  66  73 S14       29.95F
$$

LMZ563-521-522-541>543-292000-
LAKESHORE

STATION/POSITION TIME  TEMP    WIND        PRES    VSBY  WAVE
                       AIR SEA DIR/SP/G                  HT/PER
                 (UTC) (F)     (DEG/KT/KT) (MB)    (MI)  (FT/S)
SHEBOYGAN LKSHOR 1900   54     170/ 18/ 20 1014.3F
KEWAUNEE LKSHORE 1800   50     170/ 10/ 12 1014.0F
ALGOMA MARINA    1823          160/  3/  4   N/A
NORTHPORT PIER   1800   55     160/  7/ 18 1014.6F
N MID LAKE BUOY  1850   42 37  190/  8/ 10 1014.5F         1/ 3
SISTER BAY LKSHO 1818   68     190/ 15/ 20   N/A
STURGEON BAY CG  1800   50 46  170/  9     1015.8    5/8   1
CHAMBERS ISLAND  1800   70     140/  5/ 10 1013.5F
MENOMINEE LKSHOR 1800   62     160/  9/ 12 1014.2F
$$



USA.gov is the U.S. government's official web portal to all federal, state and local government web resources and services.